RYR62QT LIPE-LIEE

Flight info

Callsign RYR62QT
Flight time 1h 2m
Altitude 19000
Route LOMED L12 MAREL/N0432F370 DCT ELB/N0437F390 DCT NEMIT DCT LABOM DCT DEXUL Q125 KOVAS
Aircraft B738/M-SDE3FGIJ1LRWY/SB1

Departure

Time 2026-04-28 04:50
Airport Bologna Guglielmo Marconi Airport (LIPE)

Arrival

Time 2026-04-28 05:53
Airport Cagliari Elmas Airport (LIEE)
Time Latitude Longitude Altitude Speed Heading
2026-04-28 04:13 44.53290 11.28706 130 ft 0 kts 206°
2026-04-28 04:41 44.53307 11.28716 125 ft 4 kts 197°
2026-04-28 04:41 44.53333 11.28722 126 ft 4 kts 169°
2026-04-28 04:42 44.53354 11.28707 126 ft 3 kts 121°
2026-04-28 04:42 44.53358 11.28696 125 ft 0 kts 117°
2026-04-28 04:45 44.53351 11.28715 126 ft 4 kts 117°
2026-04-28 04:45 44.53333 11.28765 127 ft 7 kts 111°
2026-04-28 04:45 44.53352 11.28813 126 ft 6 kts 47°
2026-04-28 04:46 44.53342 11.28877 129 ft 8 kts 115°
2026-04-28 04:46 44.53316 11.28951 126 ft 9 kts 117°
2026-04-28 04:46 44.53285 11.29035 126 ft 10 kts 117°
2026-04-28 04:46 44.53251 11.29131 129 ft 12 kts 117°
2026-04-28 04:47 44.53213 11.29236 128 ft 13 kts 116°
2026-04-28 04:47 44.53171 11.29353 125 ft 14 kts 116°
2026-04-28 04:47 44.53125 11.29481 128 ft 15 kts 117°
2026-04-28 04:47 44.53075 11.29618 129 ft 16 kts 117°
2026-04-28 04:48 44.53023 11.29764 128 ft 17 kts 116°
2026-04-28 04:48 44.52971 11.29909 128 ft 16 kts 117°
2026-04-28 04:48 44.52921 11.30048 128 ft 16 kts 117°
2026-04-28 04:48 44.52877 11.30169 125 ft 12 kts 112°
2026-04-28 04:49 44.52877 11.30274 126 ft 10 kts 71°
2026-04-28 04:49 44.52930 11.30329 128 ft 10 kts 25°
2026-04-28 04:49 44.52998 11.30335 126 ft 10 kts 335°
2026-04-28 04:49 44.53049 11.30243 126 ft 17 kts 298°
2026-04-28 04:50 44.53155 11.29948 123 ft 66 kts 297°
2026-04-28 04:50 44.53474 11.29063 126 ft 135 kts 296°
2026-04-28 04:50 44.53978 11.27665 298 ft 174 kts 296°
2026-04-28 04:50 44.54532 11.26142 995 ft 178 kts 297°
2026-04-28 04:51 44.55117 11.24550 1657 ft 192 kts 297°
2026-04-28 04:51 44.55747 11.22793 2051 ft 213 kts 297°
2026-04-28 04:51 44.56433 11.20843 2360 ft 233 kts 296°
2026-04-28 04:51 44.57172 11.18758 2895 ft 244 kts 297°
2026-04-28 04:52 44.57935 11.16621 3726 ft 244 kts 297°
2026-04-28 04:52 44.58702 11.14485 4525 ft 246 kts 297°
2026-04-28 04:52 44.59477 11.12328 5306 ft 248 kts 297°
2026-04-28 04:52 44.60056 11.10047 6049 ft 251 kts 273°
2026-04-28 04:53 44.59653 11.07707 6794 ft 251 kts 237°
2026-04-28 04:53 44.58359 11.06086 7488 ft 254 kts 207°
2026-04-28 04:53 44.56689 11.05354 8167 ft 258 kts 190°
2026-04-28 04:53 44.54845 11.05046 8547 ft 276 kts 185°
2026-04-28 04:54 44.52892 11.04864 9114 ft 285 kts 184°
2026-04-28 04:54 44.50899 11.04709 9846 ft 288 kts 184°
2026-04-28 04:54 44.48878 11.04551 10443 ft 296 kts 184°
2026-04-28 04:54 44.46737 11.04374 10617 ft 319 kts 184°
2026-04-28 04:55 44.44459 11.04176 10942 ft 334 kts 184°
2026-04-28 04:55 44.42118 11.03967 11528 ft 339 kts 184°
2026-04-28 04:55 44.39750 11.03752 12237 ft 342 kts 184°
2026-04-28 04:55 44.37365 11.03533 12958 ft 345 kts 185°
2026-04-28 04:56 44.34986 11.03312 13672 ft 349 kts 185°
2026-04-28 04:56 44.32547 11.03084 14343 ft 352 kts 185°
2026-04-28 04:56 44.30085 11.02853 14977 ft 357 kts 185°
2026-04-28 04:56 44.27585 11.02619 15628 ft 361 kts 185°
2026-04-28 04:57 44.25062 11.02383 16279 ft 365 kts 185°
2026-04-28 04:57 44.22509 11.02145 16927 ft 369 kts 185°
2026-04-28 04:57 44.19933 11.01904 17548 ft 373 kts 185°
2026-04-28 04:57 44.17322 11.01660 18163 ft 378 kts 185°
2026-04-28 04:58 44.14681 11.01414 18728 ft 382 kts 185°
2026-04-28 04:58 44.12014 11.01165 19253 ft 386 kts 185°
2026-04-28 04:58 44.09324 11.00915 19797 ft 389 kts 185°
2026-04-28 04:58 44.06644 11.00666 20318 ft 392 kts 185°
2026-04-28 04:59 44.03907 11.00399 20839 ft 395 kts 187°
2026-04-28 04:59 44.01193 10.99724 21334 ft 397 kts 198°
2026-04-28 04:59 43.98575 10.98479 21850 ft 399 kts 201°
2026-04-28 04:59 43.95952 10.97168 22363 ft 402 kts 201°
2026-04-28 05:00 43.93302 10.95865 22850 ft 405 kts 201°
2026-04-28 05:00 43.90628 10.94576 23333 ft 408 kts 201°
2026-04-28 05:00 43.87927 10.93293 23783 ft 411 kts 201°
2026-04-28 05:00 43.85214 10.92013 24204 ft 413 kts 201°
2026-04-28 05:01 43.82521 10.90742 24641 ft 414 kts 201°
2026-04-28 05:01 43.79790 10.89444 25066 ft 415 kts 201°
2026-04-28 05:01 43.77047 10.88136 25473 ft 417 kts 201°
2026-04-28 05:01 43.74297 10.86825 25859 ft 419 kts 201°
2026-04-28 05:02 43.72464 10.85952 26118 ft 420 kts 201°
2026-04-28 05:02 43.69691 10.84633 26518 ft 422 kts 201°
2026-04-28 05:02 43.66907 10.83311 26895 ft 423 kts 201°
2026-04-28 05:02 43.64113 10.81986 27268 ft 425 kts 201°
2026-04-28 05:03 43.61312 10.80659 27632 ft 427 kts 201°
2026-04-28 05:03 43.57584 10.78891 28091 ft 429 kts 201°
2026-04-28 05:03 43.54757 10.77552 28443 ft 430 kts 201°
2026-04-28 05:03 43.52843 10.76646 28668 ft 431 kts 201°
2026-04-28 05:04 43.49995 10.75299 28998 ft 433 kts 201°
2026-04-28 05:04 43.47178 10.73968 29326 ft 434 kts 201°
2026-04-28 05:04 43.44320 10.72623 29639 ft 435 kts 201°
2026-04-28 05:04 43.41440 10.71276 29942 ft 436 kts 201°
2026-04-28 05:05 43.38555 10.69929 30220 ft 438 kts 201°
2026-04-28 05:05 43.35665 10.68581 30430 ft 440 kts 201°
2026-04-28 05:05 43.32755 10.67223 30630 ft 442 kts 201°
2026-04-28 05:05 43.29838 10.65864 30891 ft 442 kts 201°
2026-04-28 05:06 43.26926 10.64509 31221 ft 441 kts 201°
2026-04-28 05:06 43.24029 10.63159 31556 ft 439 kts 201°
2026-04-28 05:06 43.21132 10.61809 31851 ft 439 kts 201°
2026-04-28 05:06 43.18244 10.60463 32117 ft 439 kts 201°
2026-04-28 05:07 43.15351 10.59116 32425 ft 438 kts 201°
2026-04-28 05:07 43.12472 10.57778 32751 ft 436 kts 201°
2026-04-28 05:07 43.09641 10.56462 33026 ft 435 kts 201°
2026-04-28 05:07 43.06766 10.55129 33316 ft 434 kts 201°
2026-04-28 05:08 43.03907 10.53803 33619 ft 433 kts 202°
2026-04-28 05:08 43.01058 10.52484 33923 ft 431 kts 202°
2026-04-28 05:08 42.98220 10.51171 34185 ft 430 kts 202°
2026-04-28 05:08 42.95383 10.49860 34381 ft 430 kts 202°
2026-04-28 05:09 42.92539 10.48546 34549 ft 431 kts 202°
2026-04-28 05:09 42.89695 10.47233 34730 ft 431 kts 202°
2026-04-28 05:09 42.86856 10.45924 34917 ft 431 kts 201°
2026-04-28 05:09 42.84014 10.44616 35094 ft 431 kts 201°
2026-04-28 05:10 42.81211 10.43326 35278 ft 431 kts 201°
2026-04-28 05:10 42.78366 10.42018 35462 ft 431 kts 201°
2026-04-28 05:10 42.75515 10.40709 35615 ft 431 kts 201°
2026-04-28 05:10 42.72666 10.39413 35784 ft 432 kts 200°
2026-04-28 05:11 42.69784 10.38238 35963 ft 432 kts 199°
2026-04-28 05:11 42.66880 10.37149 36125 ft 432 kts 198°
2026-04-28 05:11 42.63976 10.36090 36268 ft 433 kts 198°
2026-04-28 05:11 42.61107 10.35043 36427 ft 432 kts 198°
2026-04-28 05:12 42.58205 10.33972 36594 ft 432 kts 198°
2026-04-28 05:12 42.55301 10.32890 36732 ft 432 kts 198°
2026-04-28 05:12 42.52392 10.31799 36864 ft 432 kts 198°
2026-04-28 05:12 42.49484 10.30706 36984 ft 433 kts 198°
2026-04-28 05:13 42.46580 10.29615 37060 ft 434 kts 198°
2026-04-28 05:13 42.40756 10.27430 37075 ft 437 kts 198°
2026-04-28 05:14 42.34890 10.25216 37072 ft 438 kts 199°
2026-04-28 05:14 42.29086 10.22686 37073 ft 438 kts 201°
2026-04-28 05:15 42.23299 10.20043 37070 ft 438 kts 201°
2026-04-28 05:15 42.17539 10.17449 37069 ft 438 kts 201°
2026-04-28 05:16 42.11740 10.14874 37068 ft 438 kts 201°
2026-04-28 05:16 42.05940 10.12317 37068 ft 437 kts 201°
2026-04-28 05:17 41.97302 10.08519 37066 ft 436 kts 201°
2026-04-28 05:17 41.91532 10.05988 37069 ft 435 kts 200°
2026-04-28 05:18 41.85779 10.03467 37066 ft 434 kts 200°
2026-04-28 05:18 41.80031 10.00955 37068 ft 434 kts 200°
2026-04-28 05:19 41.74326 9.98465 37061 ft 434 kts 200°
2026-04-28 05:19 41.68580 9.95962 37065 ft 434 kts 200°
2026-04-28 05:20 41.62827 9.93461 37067 ft 434 kts 200°
2026-04-28 05:20 41.57067 9.90962 37065 ft 435 kts 200°
2026-04-28 05:21 41.51340 9.88481 37052 ft 435 kts 200°
2026-04-28 05:21 41.45568 9.85986 37057 ft 436 kts 200°
2026-04-28 05:22 41.39786 9.83491 37059 ft 436 kts 200°
2026-04-28 05:22 41.34002 9.81000 37058 ft 437 kts 200°
2026-04-28 05:23 41.28252 9.78528 37056 ft 437 kts 200°
2026-04-28 05:23 41.22448 9.76038 37051 ft 438 kts 200°
2026-04-28 05:24 41.16642 9.73552 37056 ft 438 kts 200°
2026-04-28 05:24 41.10837 9.71070 37059 ft 439 kts 200°
2026-04-28 05:25 41.05026 9.68591 37066 ft 439 kts 200°
2026-04-28 05:25 40.99207 9.66112 37071 ft 439 kts 200°
2026-04-28 05:26 40.93383 9.63637 37072 ft 439 kts 200°
2026-04-28 05:26 40.90469 9.62399 36916 ft 442 kts 200°
2026-04-28 05:26 40.87535 9.61154 36638 ft 441 kts 200°
2026-04-28 05:27 40.84619 9.59919 36380 ft 439 kts 200°
2026-04-28 05:27 40.81748 9.58704 36127 ft 439 kts 200°
2026-04-28 05:27 40.78830 9.57470 35883 ft 441 kts 200°
2026-04-28 05:27 40.75901 9.56232 35638 ft 442 kts 200°
2026-04-28 05:28 40.72954 9.54987 35388 ft 443 kts 200°
2026-04-28 05:28 40.70011 9.53746 35143 ft 444 kts 199°
2026-04-28 05:28 40.67049 9.52497 34867 ft 444 kts 199°
2026-04-28 05:28 40.64146 9.51276 34215 ft 443 kts 199°
2026-04-28 05:29 40.61208 9.50040 33558 ft 441 kts 199°
2026-04-28 05:29 40.58293 9.48816 32871 ft 439 kts 199°
2026-04-28 05:29 40.55390 9.47597 32215 ft 437 kts 199°
2026-04-28 05:29 40.52495 9.46383 31579 ft 436 kts 199°
2026-04-28 05:30 40.49616 9.45176 31096 ft 432 kts 199°
2026-04-28 05:30 40.46771 9.43985 30602 ft 426 kts 198°
2026-04-28 05:30 40.43955 9.42806 30129 ft 423 kts 198°
2026-04-28 05:30 40.41131 9.41625 29597 ft 431 kts 198°
2026-04-28 05:31 40.38239 9.40413 29060 ft 440 kts 199°
2026-04-28 05:31 40.35369 9.39090 28503 ft 434 kts 201°
2026-04-28 05:31 40.32568 9.37686 28009 ft 427 kts 202°
2026-04-28 05:31 40.29823 9.36269 27507 ft 421 kts 202°
2026-04-28 05:32 40.27149 9.34886 27046 ft 414 kts 202°
2026-04-28 05:32 40.24475 9.33513 26560 ft 409 kts 202°
2026-04-28 05:32 40.21836 9.32170 26097 ft 404 kts 201°
2026-04-28 05:32 40.19228 9.30852 25625 ft 400 kts 201°
2026-04-28 05:33 40.16643 9.29552 25166 ft 396 kts 201°
2026-04-28 05:33 40.14087 9.28269 24711 ft 392 kts 201°
2026-04-28 05:33 40.11545 9.26996 24238 ft 389 kts 201°
2026-04-28 05:33 40.09028 9.25736 23777 ft 386 kts 201°
2026-04-28 05:34 40.06522 9.24483 23244 ft 385 kts 201°
2026-04-28 05:34 40.04027 9.23236 22755 ft 382 kts 201°
2026-04-28 05:34 40.01549 9.21998 22276 ft 382 kts 201°
2026-04-28 05:34 39.99075 9.20763 21826 ft 389 kts 201°
2026-04-28 05:35 39.96543 9.19499 21352 ft 389 kts 201°
2026-04-28 05:35 39.94029 9.18246 20875 ft 384 kts 201°
2026-04-28 05:35 39.91544 9.17009 20409 ft 379 kts 201°
2026-04-28 05:35 39.89093 9.15789 19947 ft 375 kts 201°
2026-04-28 05:36 39.86673 9.14586 19505 ft 370 kts 201°
2026-04-28 05:36 39.84246 9.13516 19053 ft 366 kts 196°
2026-04-28 05:36 39.81795 9.12683 18617 ft 362 kts 194°
2026-04-28 05:36 39.79344 9.11920 18147 ft 359 kts 193°
2026-04-28 05:37 39.76961 9.11178 17673 ft 355 kts 194°
2026-04-28 05:37 39.74579 9.10414 17224 ft 350 kts 195°
2026-04-28 05:37 39.72233 9.09643 16788 ft 345 kts 195°
2026-04-28 05:37 39.69922 9.08875 16369 ft 341 kts 195°
2026-04-28 05:38 39.67636 9.08114 15959 ft 337 kts 195°
2026-04-28 05:38 39.65340 9.07633 15519 ft 335 kts 178°
2026-04-28 05:38 39.63157 9.08294 15150 ft 334 kts 156°
2026-04-28 05:38 39.61146 9.09814 14778 ft 335 kts 148°
2026-04-28 05:39 39.59185 9.11450 14362 ft 338 kts 148°
2026-04-28 05:39 39.57181 9.13131 13934 ft 347 kts 148°
2026-04-28 05:39 39.55143 9.14834 13455 ft 348 kts 148°
2026-04-28 05:39 39.53114 9.16521 12996 ft 344 kts 149°
2026-04-28 05:40 39.51139 9.18155 12566 ft 339 kts 149°
2026-04-28 05:40 39.49161 9.19784 12142 ft 335 kts 149°
2026-04-28 05:40 39.47203 9.21394 11728 ft 331 kts 149°
2026-04-28 05:40 39.45269 9.22980 11316 ft 327 kts 149°
2026-04-28 05:41 39.43355 9.24547 10908 ft 323 kts 149°
2026-04-28 05:41 39.41477 9.26085 10672 ft 315 kts 149°
2026-04-28 05:41 39.39648 9.27581 10423 ft 308 kts 149°
2026-04-28 05:41 39.37861 9.29042 10226 ft 299 kts 149°
2026-04-28 05:42 39.36142 9.30447 10149 ft 286 kts 149°
2026-04-28 05:42 39.34479 9.31806 9918 ft 281 kts 149°
2026-04-28 05:42 39.32831 9.33148 9559 ft 279 kts 149°
2026-04-28 05:42 39.31188 9.34486 9186 ft 279 kts 149°
2026-04-28 05:43 39.29554 9.35816 8847 ft 277 kts 149°
2026-04-28 05:43 39.27927 9.37142 8515 ft 276 kts 149°
2026-04-28 05:43 39.26309 9.38459 8174 ft 274 kts 149°
2026-04-28 05:43 39.24698 9.39769 7832 ft 273 kts 149°
2026-04-28 05:44 39.23115 9.41057 7542 ft 271 kts 149°
2026-04-28 05:44 39.21521 9.42355 7223 ft 270 kts 149°
2026-04-28 05:44 39.19936 9.43647 6892 ft 269 kts 149°
2026-04-28 05:44 39.18364 9.44927 6664 ft 265 kts 149°
2026-04-28 05:45 39.16816 9.46185 6404 ft 261 kts 149°
2026-04-28 05:45 39.15271 9.47384 6134 ft 257 kts 157°
2026-04-28 05:45 39.13569 9.47649 5992 ft 243 kts 194°
2026-04-28 05:45 39.12121 9.46641 5758 ft 235 kts 224°
2026-04-28 05:46 39.11181 9.45003 5556 ft 229 kts 245°
2026-04-28 05:46 39.10739 9.43060 5331 ft 225 kts 265°
2026-04-28 05:46 39.10777 9.41046 5142 ft 225 kts 275°
2026-04-28 05:46 39.10935 9.39034 4939 ft 227 kts 276°
2026-04-28 05:47 39.11108 9.37007 4734 ft 228 kts 276°
2026-04-28 05:47 39.11278 9.34968 4536 ft 227 kts 276°
2026-04-28 05:47 39.11441 9.32959 4266 ft 226 kts 275°
2026-04-28 05:47 39.11600 9.30940 3915 ft 227 kts 275°
2026-04-28 05:48 39.11756 9.28909 3618 ft 227 kts 275°
2026-04-28 05:48 39.11907 9.26913 3327 ft 227 kts 275°
2026-04-28 05:48 39.12059 9.24892 3020 ft 226 kts 274°
2026-04-28 05:48 39.12209 9.22877 2755 ft 225 kts 274°
2026-04-28 05:49 39.12445 9.20916 2695 ft 217 kts 290°
2026-04-28 05:49 39.13306 9.19420 2721 ft 207 kts 316°
2026-04-28 05:49 39.14310 9.18109 2620 ft 202 kts 315°
2026-04-28 05:49 39.15312 9.16881 2392 ft 196 kts 318°
2026-04-28 05:50 39.16315 9.15711 2134 ft 193 kts 319°
2026-04-28 05:50 39.17296 9.14571 1879 ft 190 kts 319°
2026-04-28 05:50 39.18273 9.13433 1621 ft 187 kts 319°
2026-04-28 05:50 39.18910 9.12690 1451 ft 185 kts 319°
2026-04-28 05:51 39.19851 9.11592 1195 ft 178 kts 319°
2026-04-28 05:51 39.21004 9.10248 936 ft 156 kts 319°
2026-04-28 05:51 39.21779 9.09346 687 ft 146 kts 319°
2026-04-28 05:51 39.22526 9.08476 495 ft 145 kts 319°
2026-04-28 05:52 39.23021 9.07896 366 ft 145 kts 319°
2026-04-28 05:52 39.24010 9.06741 107 ft 141 kts 320°
2026-04-28 05:52 39.24493 9.06185 17 ft 136 kts 320°
2026-04-28 05:52 39.25080 9.05508 15 ft 83 kts 317°
2026-04-28 05:53 39.25345 9.05200 13 ft 23 kts 317°
2026-04-28 05:53 39.25463 9.05064 14 ft 22 kts 319°
2026-04-28 05:53 39.25577 9.04932 15 ft 22 kts 318°
2026-04-28 05:53 39.25689 9.04853 16 ft 18 kts 358°
2026-04-28 05:54 39.25770 9.04900 15 ft 13 kts 66°
2026-04-28 05:54 39.25751 9.05004 14 ft 13 kts 135°
2026-04-28 05:54 39.25687 9.05078 14 ft 12 kts 138°
2026-04-28 05:54 39.25624 9.05151 14 ft 12 kts 138°
2026-04-28 05:55 39.25563 9.05221 14 ft 12 kts 138°
2026-04-28 05:55 39.25504 9.05290 14 ft 11 kts 137°
2026-04-28 05:55 39.25447 9.05359 14 ft 11 kts 132°
2026-04-28 05:55 39.25412 9.05444 14 ft 11 kts 109°
2026-04-28 05:56 39.25396 9.05537 14 ft 10 kts 101°
2026-04-28 05:56 39.25373 9.05621 16 ft 10 kts 127°
2026-04-28 05:56 39.25324 9.05684 14 ft 10 kts 136°
2026-04-28 05:56 39.25274 9.05741 14 ft 10 kts 139°
2026-04-28 05:57 39.25226 9.05797 14 ft 8 kts 132°
2026-04-28 05:57 39.25241 9.05855 15 ft 7 kts 52°
2026-04-28 05:57 39.25249 9.05868 15 ft 1 kts 51°
2026-04-28 05:57 39.25250 9.05871 14 ft 0 kts 51°